EW5506 Weather Reports


time (UTC)temp
C
wind
direction
speed
KPH
gust
KPH
rain 1hr
cm
rain 24hr
cm
rain mn
cm
humidity
%
barometer
mb
20260505164544 16 261 1.6 6.4 0.00 0.51 0.43 81 1007.9
20260505163114 16 262 4.8 9.7 0.00 0.51 0.43 80 1007.9
20260505161538 17 274 1.6 11.3 0.00 0.51 0.43 79 1008.0
20260505160112 16 261 4.8 12.9 0.00 0.51 0.43 81 1007.9
20260505153042 15 300 1.6 12.9 0.00 0.58 0.43 84 1008.0
20260505151508 15 329 11.3 17.7 0.00 0.58 0.43 83 1008.0
20260505130129 17 144 3.2 8.0 0.00 0.23 0.08 75 1007.9
20260505124504 17 190 3.2 8.0 0.00 0.23 0.08 73 1008.0
20260505123005 17 10 1.6 8.0 0.00 0.23 0.08 73 1008.0
20260505121556 17 175 1.6 8.0 0.00 0.23 0.08 76 1008.2
20260505120113 16 9 3.2 6.4 0.00 0.23 0.08 77 1008.4
20260505114550 16 22 1.6 6.4 0.00 0.23 0.08 77 1008.5
20260505113109 15 276 0.0 4.8 0.00 0.23 0.08 79 1008.6
20260505111534 15 271 1.6 6.4 0.00 0.23 0.08 82 1008.9
20260505101526 14 279 3.2 6.4 0.00 0.23 0.08 85 1009.2
20260505100057 14 286 4.8 9.7 0.00 0.23 0.08 86 1009.1
20260505094518 14 314 0.0 4.8 0.00 0.23 0.08 87 1009.0
20260505093020 13 246 1.6 4.8 0.00 0.23 0.08 90 1009.1
20260505091519 13 246 0.0 4.8 0.00 0.23 0.08 91 1009.2
20260505090045 13 219 0.0 3.2 0.00 0.23 0.08 92 1009.1
20260505084508 13 219 0.0 4.8 0.00 0.23 0.08 93 1009.1
20260505083050 13 219 0.0 0.0 0.00 0.23 0.08 93 1009.3
20260505081604 12 219 0.0 4.8 0.00 0.23 0.08 93 1009.4
20260505080118 12 221 1.6 6.4 0.00 0.23 0.08 94 1009.6
20260505074555 12 220 4.8 8.0 0.00 0.23 0.08 94 1009.8
20260505073118 12 229 3.2 8.0 0.00 0.23 0.08 94 1009.8
20260505071548 12 221 3.2 9.7 0.00 0.23 0.08 94 1009.9
20260505070119 12 222 4.8 8.0 0.00 0.23 0.08 94 1009.9
20260505064558 12 225 4.8 8.0 0.00 0.23 0.08 94 1010.0
20260505063109 11 235 3.2 8.0 0.00 0.23 0.08 94 1010.1
20260505061535 11 246 1.6 6.4 0.03 0.23 0.08 94 1010.1
20260505060107 11 247 3.2 4.8 0.03 0.23 0.08 94 1010.2
20260505054540 11 247 1.6 8.0 0.05 0.23 0.08 94 1010.2
20260505053117 11 239 1.6 12.9 0.05 0.23 0.08 94 1010.2
20260505051533 11 234 4.8 8.0 0.05 0.20 0.05 94 1010.2
20260505041548 11 178 1.6 3.2 0.00 0.15 0.00 94 1010.1
20260505040107 11 178 1.6 4.8 0.00 0.15 0.00 94 1010.0
20260505034537 11 166 0.0 0.0 0.00 0.15 0.00 94 1010.2
20260505033103 11 166 0.0 3.2 0.00 0.15 0.00 94 1010.3
20260505031543 11 166 0.0 3.2 0.00 0.15 0.00 94 1010.3
20260505030131 11 166 0.0 0.0 0.00 0.15 0.00 94 1010.3
20260505024540 11 166 0.0 0.0 0.00 0.15 0.00 94 1010.4
20260505023113 11 166 0.0 1.6 0.00 0.15 0.00 94 1010.4
20260505021543 10 165 0.0 4.8 0.00 0.15 0.00 94 1010.5
20260505020113 11 165 1.6 8.0 0.00 0.15 0.00 94 1010.6
20260505014600 10 225 0.0 0.0 0.00 0.15 0.00 94 1010.6
20260505013107 10 225 0.0 0.0 0.00 0.15 0.00 94 1010.8
20260505011542 10 225 0.0 1.6 0.00 0.15 0.00 94 1010.9
20260505010105 10 225 0.0 3.2 0.00 0.15 0.00 93 1011.3
20260505004548 10 225 0.0 3.2 0.00 0.15 0.00 94 1011.4
20260505003119 10 225 0.0 3.2 0.00 0.15 0.00 93 1011.6
20260505001542 10 225 1.6 3.2 0.00 0.15 0.00 93 1011.8
20260505000108 10 225 1.6 4.8 0.00 0.15 0.00 93 1012.0
20260504234540 10 225 0.0 4.8 0.00 0.15 0.00 93 1012.0
20260504233103 10 225 0.0 3.2 0.00 0.15 0.00 93 1012.1
20260504231527 11 225 0.0 0.0 0.00 0.15 0.00 93 1012.2
20260504230057 11 225 0.0 0.0 0.00 0.15 0.00 93 1012.4
20260504224522 11 225 1.6 3.2 0.00 0.15 0.00 93 1012.4
20260504223101 11 225 1.6 3.2 0.00 0.15 0.00 93 1012.5
20260504221526 11 225 0.0 4.8 0.00 0.15 0.00 93 1012.6
20260504220025 12 225 1.6 3.2 0.00 0.15 0.00 93 1012.6
20260504214518 12 225 0.0 0.0 0.00 0.15 0.15 93 1012.6
20260504213050 12 225 0.0 0.0 0.00 0.15 0.15 93 1012.6
20260504211535 12 225 0.0 1.6 0.00 0.15 0.15 93 1012.7
20260504210101 13 225 0.0 4.8 0.00 0.15 0.15 93 1012.9
20260504204539 13 227 0.0 4.8 0.00 0.15 0.15 92 1012.9
20260504203111 13 228 0.0 1.6 0.00 0.15 0.15 92 1013.1
20260504201540 13 228 0.0 1.6 0.00 0.15 0.15 92 1013.2
20260504200104 13 228 0.0 3.2 0.00 0.15 0.15 92 1013.1
20260504194544 13 228 1.6 4.8 0.00 0.15 0.15 92 1013.1
20260504193110 13 229 3.2 4.8 0.00 0.15 0.15 92 1013.0
20260504191549 13 225 4.8 8.0 0.00 0.15 0.15 92 1012.9
20260504190114 13 126 1.6 4.8 0.00 0.15 0.15 91 1012.6
20260504184551 13 127 0.0 4.8 0.00 0.15 0.15 91 1012.7
20260504183006 13 128 1.6 6.4 0.00 0.15 0.15 91 1012.8
20260504181602 14 105 3.2 4.8 0.03 0.15 0.15 91 1012.9
20260504181505 14 103 3.2 4.8 0.03 0.15 0.15 90 1012.9
20260504180002 14 94 1.6 6.4 0.03 0.15 0.15 90 1012.9
20260504174559 14 197 1.6 4.8 0.05 0.15 0.15 90 1013.0
20260504173123 14 249 1.6 3.2 0.05 0.15 0.15 89 1013.3
20260504171557 14 249 0.0 1.6 0.05 0.13 0.13 89 1013.4
20260504171505 14 249 0.0 1.6 0.05 0.13 0.13 89 1013.5